This is the latest recevied weather packets stored in our database for station/object EA5CLU-13. If no packets are shown the sender has not sent any weather packets the latest 10 day(s).
| Time | Temp. | Humidity | Pressure | Rain* | Wind** | Luminosity | Snow |
|---|---|---|---|---|---|---|---|
| 1788090579 | 26.11° C | - | 1020.2 hPa | 0 mm | - | - | - |
| 1788089981 | 26.11° C | - | 1020.3 hPa | 0 mm | - | - | - |
| 1788089378 | 26.11° C | - | 1020.3 hPa | 0 mm | - | - | - |
| 1788089080 | 25.56° C | - | 1020.4 hPa | 0 mm | - | - | - |
| 1788088480 | 26.11° C | - | 1020.4 hPa | 0 mm | - | - | - |
| 1788087580 | 26.11° C | - | 1020.6 hPa | 0 mm | - | - | - |
| 1788087280 | 26.11° C | - | 1020.7 hPa | 0 mm | - | - | - |
| 1788086979 | 26.11° C | - | 1020.5 hPa | 0 mm | - | - | - |
| 1788086678 | 26.11° C | - | 1020.5 hPa | 0 mm | - | - | - |
| 1788086380 | 26.67° C | - | 1020.8 hPa | 0 mm | - | - | - |
| 1788086080 | 26.67° C | - | 1020.6 hPa | 0 mm | - | - | - |
| 1788084578 | 25.56° C | - | 1020.9 hPa | 0 mm | - | - | - |
| 1788084278 | 25.56° C | - | 1020.9 hPa | 0 mm | - | - | - |
| 1788083980 | 25° C | - | 1020.9 hPa | 0 mm | - | - | - |
| 1788083679 | 25.56° C | - | 1020.9 hPa | 0 mm | - | - | - |
| 1788083379 | 25° C | - | 1020.9 hPa | 0 mm | - | - | - |
| 1788083080 | 25° C | - | 1021.3 hPa | 0 mm | - | - | - |
| 1788082178 | 24.44° C | - | 1020.9 hPa | 0 mm | - | - | - |
| 1788081317 | 23.89° C | - | 1021.2 hPa | 0 mm | - | - | - |
| 1788081279 | 23.89° C | - | 1021.2 hPa | 0 mm | - | - | - |
| 1788081054 | 23.89° C | - | 1021.2 hPa | 0 mm | - | - | - |
| 1788080979 | 23.89° C | - | 1021.2 hPa | 0 mm | - | - | - |
| 1788079480 | 23.33° C | - | 1021.4 hPa | 0 mm | - | - | - |
| 1788078879 | 23.33° C | - | 1021.1 hPa | 0 mm | - | - | - |
| 1788077378 | 22.78° C | - | 1021 hPa | 0 mm | - | - | - |
* Rain latest hour (hover to see other rain measurements)
** Current wind speed in m/s (hover to see current wind gust speed)